Home   Weather   Laredo   Past weeks

Flag for USA Past Weather in Laredo, Texas, USA — Yesterday and Last 2 Weeks

Now
59 °F

Clear.


Feels Like: 56 °F
Forecast: 57 / 89 °F
Wind: 14 mph from Southeast

Location: Laredo International Airport

Current Time: Jan 24, 2017 at 5:28:18 am

Latest Report: Jan 24, 2017 at 4:56 am


Visibility: 10 mi

Pressure: 29.74 "Hg

Humidity: 56%

Dew Point: 43 °F

Location of LaredoLocation

Past Weather in Laredo — Graph

°F

Laredo Temperature Yesterday

Maximum temperature yesterday: 83 °F (at 3:56 pm)
Minimum temperature yesterday: 45 °F (at 7:56 am)
Average temperature yesterday: 64 °F

High & Low Weather Summary for the Past Weeks

 TemperatureHumidityPressure
High93 °F (Jan 21, 2:56 pm)100% (Jan 17, 8:28 am)30.42 "Hg (Jan 17, 8:28 am)
Low38 °F (Jan 9, 3:56 am)10% (Jan 21, 4:56 pm)29.41 "Hg (Jan 21, 4:56 pm)
Average68 °F66%29.97 "Hg
* Reported Jan 9 3:56 am — Jan 24 3:56 am, Laredo, Weather by CustomWeather, © 2017

Note: Actual official high and low records may vary slightly from our data, if they occured in-between our weather recording intervals... More about our weather records

Advertising

Laredo Weather History for the Previous 24 Hours

Scroll right to see more
 ConditionsComfort  
Time TempWeatherWind HumidityBarometerVisibility
3:56 am
Tue, Jan 24
60 °FClear.9 mph49%29.75 "Hg10 mi
2:56 am61 °FClear.15 mph48%29.76 "Hg10 mi
1:56 am61 °FClear.15 mph42%29.78 "Hg10 mi
12:56 am62 °FClear.13 mph37%29.80 "Hg10 mi
11:56 pm
Mon, Jan 23
64 °FClear.15 mph34%29.83 "Hg10 mi
10:56 pm66 °FClear.16 mph28%29.83 "Hg10 mi
9:56 pm67 °FClear.13 mph24%29.85 "Hg10 mi
8:56 pm69 °FClear.12 mph22%29.86 "Hg10 mi
7:56 pm71 °FClear.12 mph22%29.87 "Hg10 mi
6:56 pm72 °FClear.9 mph21%29.87 "Hg10 mi
5:56 pm79 °FSunny.8 mph16%29.87 "Hg10 mi
4:56 pm83 °FSunny.10 mph14%29.87 "Hg10 mi
3:56 pm83 °FSunny.9 mph13%29.89 "Hg10 mi
2:56 pm82 °FSunny.12 mph13%29.92 "Hg10 mi
1:56 pm81 °FSunny.8 mph13%29.96 "Hg10 mi
12:56 pm78 °FSunny.7 mph13%30.01 "Hg10 mi
11:56 am75 °FSunny.8 mph16%30.07 "Hg10 mi
10:56 am71 °FSunny.5 mph21%30.11 "Hg10 mi
9:56 am62 °FSunny.3 mph29%30.13 "Hg10 mi
8:56 am54 °FSunny.No wind51%30.11 "Hg10 mi
7:56 am45 °FSunny.No wind60%30.10 "Hg10 mi
6:56 am48 °FClear.5 mph46%30.10 "Hg10 mi
5:56 am48 °FClear.3 mph44%30.07 "Hg10 mi
Weather by CustomWeather, © 2017

See weather overviewHow to use our weather pages